Lethbridge,

1:32 PM MDT on August 17, 2017 (GMT -0600)
Lethbridge

Weather History for CYQL - January, 2013

Change the Weather History Date:

Thursday, January 17, 2013

  Actual Average Record
Temperature  
Mean Temperature 34 °F -  
Max Temperature 48 °F 27 °F 51 °F (2014)
Min Temperature 21 °F 5 °F -36 °F (2015)
Degree Days  
Heating Degree Days 30    
Moisture  
Dew Point 23 °F    
Average Humidity 51    
Maximum Humidity 86    
Minimum Humidity 24    
Precipitation  
Precipitation 0.00 in - - ()
Sea Level Pressure  
Sea Level Pressure 30.09 in    
Wind  
Wind Speed 17 mph ()    
Max Wind Speed 34 mph    
Max Gust Speed 45 mph    
Visibility 11.5 miles    
Events      
Averages and records for this station are not official NWS values.
T = Trace of Precipitation, MM = Missing Value Source: Averaged Metar Reports

Daily Weather History Graph

Daily Weather History Graph

Search for Another Location

Airport or City:

Trip Planner

Search our weather history database for the weather conditions in past years. The results will help you decide how hot, cold, wet, or windy it might be!

Date:

Astronomy

Jan. 17, 2013 Rise Set
Actual Time 8:20 AM MST 5:02 PM MST
Civil Twilight 7:44 AM MST 5:39 PM MST
Nautical Twilight 7:04 AM MST 6:19 PM MST
Astronomical Twilight 6:26 AM MST 6:57 PM MST
Moon 10:47 AM MST No Moon Set
Length of Visible Light 9h 55m
Length of Day
8h 42m
Waxing Crescent, 38% of the Moon is Illuminated
Jan 17
Waxing Crescent
Jan 18
First Quarter
Jan 26
Full
Feb 3
Last Quarter
Feb 10
New

Hourly Weather History & Observations

Time (MST) Temp. Windchill Dew Point Humidity Pressure Visibility Wind Dir Wind Speed Gust Speed Precip Events Conditions
12:00 AM 26.6 °F 20.0 °F 19.4 °F 74% 30.30 in - SSE 5.8 mph - N/A   Clear
1:00 AM 21.2 °F 10.9 °F 17.6 °F 86% 30.30 in 9.0 mi South 9.2 mph - N/A   Clear
2:00 AM 21.2 °F 9.5 °F 17.6 °F 86% 30.28 in 9.0 mi South 11.5 mph - N/A   Clear
3:00 AM 21.2 °F 9.5 °F 17.6 °F 86% 30.26 in - South 11.5 mph - N/A   Clear
4:00 AM 33.8 °F 23.2 °F 24.8 °F 70% 30.20 in 9.0 mi WSW 17.3 mph - N/A   Clear
5:00 AM 37 °F - 25 °F 50% 30.19 in 10 mi WSW 20.7 mph - -  
5:00 AM 37.4 °F 27.2 °F 24.8 °F 60% 30.18 in 9.0 mi WSW 19.6 mph - N/A   Clear
6:00 AM 37.4 °F 27.5 °F 24.8 °F 60% 30.17 in 15.0 mi WSW 18.4 mph - N/A   Clear
7:00 AM 39.2 °F 29.3 °F 26.6 °F 61% 30.16 in 15.0 mi West 20.7 mph 29.9 mph N/A   Scattered Clouds
8:00 AM 41.0 °F 31.1 °F 24.8 °F 53% 30.17 in 40.0 mi West 23.0 mph 32.2 mph N/A   Mostly Cloudy
9:00 AM 42.8 °F 31.9 °F 24.8 °F 49% 30.17 in 40.0 mi West 32.2 mph 39.1 mph N/A   Mostly Cloudy
10:00 AM 42.8 °F 33.5 °F 24.8 °F 49% 30.16 in 40.0 mi West 23.0 mph 32.2 mph N/A   Mostly Cloudy
11:00 AM 45 °F - 25 °F 33% 30.14 in - West 29.9 mph - -  
11:00 AM 44.6 °F 34.9 °F 24.8 °F 46% 30.14 in 40.0 mi West 28.8 mph 39.1 mph N/A   Overcast
12:00 PM 46.4 °F 37.9 °F 24.8 °F 43% 30.10 in 40.0 mi West 25.3 mph 31.1 mph N/A   Mostly Cloudy
1:00 PM 44.6 °F 35.1 °F 24.8 °F 46% 30.07 in 40.0 mi West 27.6 mph 39.1 mph N/A   Mostly Cloudy
2:00 PM 46.4 °F 38.7 °F 23.0 °F 40% 30.05 in 40.0 mi West 20.7 mph 28.8 mph N/A   Mostly Cloudy
3:00 PM 46.4 °F 36.5 °F 24.8 °F 43% 30.00 in 40.0 mi West 34.5 mph 44.9 mph N/A   Mostly Cloudy
4:00 PM 44.6 °F 35.9 °F 26.6 °F 49% 30.00 in 40.0 mi West 23.0 mph 28.8 mph N/A   Mostly Cloudy
5:00 PM 45 °F - 24 °F 31% 29.99 in 10 mi WSW 23.0 mph - -   Overcast
5:00 PM 44.6 °F 35.5 °F 24.8 °F 46% 29.99 in 40.0 mi WSW 25.3 mph 31.1 mph N/A   Mostly Cloudy
6:00 PM 42.8 °F 32.9 °F 24.8 °F 49% 29.97 in 40.0 mi SW 26.5 mph 35.7 mph N/A   Mostly Cloudy
7:00 PM 42.8 °F 32.7 °F 23.0 °F 46% 29.96 in 40.0 mi SW 27.6 mph 34.5 mph N/A   Mostly Cloudy
8:00 PM 46.4 °F 37.5 °F 19.4 °F 34% 29.95 in 15.0 mi West 27.6 mph 34.5 mph N/A   Mostly Cloudy
9:00 PM 44.6 °F 35.3 °F 17.6 °F 34% 29.94 in 15.0 mi WSW 26.5 mph 36.8 mph N/A   Mostly Cloudy
10:00 PM 41.0 °F 31.4 °F 21.2 °F 45% 29.94 in 15.0 mi WSW 21.9 mph 28.8 mph N/A   Mostly Cloudy
11:00 PM 43 °F - 19 °F 24% 29.90 in 10 mi WSW 28.8 mph - -  
11:00 PM 42.8 °F 32.3 °F 19.4 °F 39% 29.90 in 9.0 mi WSW 29.9 mph 38.0 mph N/A   Clear